DAL561 KATL-KJFK

Flight info

Callsign DAL561
Flight time 1h 45m
Altitude 35000
Route ATL2 EAONE CLT RDU LFI SWL SIE CAMRN5
Aircraft L101/H-SDFHIWXY/C

Departure

Time 2026-05-04 14:48
Airport Hartsfield Jackson Atlanta International Airport (KATL)

Arrival

Time 2026-05-04 16:34
Airport John F. Kennedy International Airport (KJFK)
Time Latitude Longitude Altitude Speed Heading
2026-05-04 14:22 33.63864 -84.42043 1040 ft 0 kts 90°
2026-05-04 14:37 33.63864 -84.42047 1040 ft 2 kts 90°
2026-05-04 14:37 33.63864 -84.42079 1040 ft 4 kts 90°
2026-05-04 14:37 33.63862 -84.42110 1041 ft 4 kts 78°
2026-05-04 14:37 33.63854 -84.42140 1040 ft 4 kts 54°
2026-05-04 14:38 33.63835 -84.42159 1040 ft 4 kts
2026-05-04 14:38 33.63825 -84.42160 1040 ft 1 kts 359°
2026-05-04 14:40 33.63830 -84.42161 1040 ft 2 kts 348°
2026-05-04 14:40 33.63839 -84.42170 1042 ft 4 kts 316°
2026-05-04 14:41 33.63870 -84.42215 1041 ft 9 kts 314°
2026-05-04 14:41 33.63936 -84.42241 1040 ft 11 kts 359°
2026-05-04 14:41 33.64138 -84.42243 1040 ft 18 kts 359°
2026-05-04 14:42 33.64412 -84.42240 1040 ft 18 kts
2026-05-04 14:42 33.64485 -84.42225 1040 ft 8 kts 39°
2026-05-04 14:42 33.64523 -84.42153 1040 ft 12 kts 61°
2026-05-04 14:43 33.64543 -84.42056 1040 ft 13 kts 90°
2026-05-04 14:43 33.64543 -84.41933 1040 ft 16 kts 90°
2026-05-04 14:43 33.64543 -84.41784 1041 ft 19 kts 90°
2026-05-04 14:43 33.64542 -84.41612 1041 ft 22 kts 90°
2026-05-04 14:44 33.64543 -84.41420 1041 ft 24 kts 90°
2026-05-04 14:44 33.64542 -84.41204 1041 ft 27 kts 90°
2026-05-04 14:44 33.64542 -84.40974 1040 ft 28 kts 89°
2026-05-04 14:44 33.64552 -84.40821 1040 ft 18 kts 73°
2026-05-04 14:45 33.64571 -84.40671 1039 ft 16 kts 90°
2026-05-04 14:45 33.64574 -84.40601 1039 ft 4 kts 75°
2026-05-04 14:45 33.64600 -84.40576 1039 ft 7 kts 21°
2026-05-04 14:45 33.64656 -84.40588 1038 ft 10 kts 319°
2026-05-04 14:46 33.64678 -84.40659 1038 ft 7 kts 269°
2026-05-04 14:46 33.64678 -84.40663 1038 ft 0 kts 271°
2026-05-04 14:47 33.64679 -84.40776 1039 ft 47 kts 269°
2026-05-04 14:48 33.64680 -84.41557 1042 ft 137 kts 270°
2026-05-04 14:48 33.64676 -84.42949 1425 ft 185 kts 268°
2026-05-04 14:48 33.64669 -84.44563 2404 ft 205 kts 268°
2026-05-04 14:48 33.64631 -84.46297 3093 ft 206 kts 268°
2026-05-04 14:49 33.64578 -84.48208 3489 ft 244 kts 269°
2026-05-04 14:49 33.64521 -84.50264 3966 ft 253 kts 269°
2026-05-04 14:49 33.64464 -84.52396 4467 ft 258 kts 269°
2026-05-04 14:49 33.64407 -84.54554 4969 ft 260 kts 269°
2026-05-04 14:50 33.64352 -84.56735 5456 ft 262 kts 269°
2026-05-04 14:50 33.64620 -84.58933 5468 ft 269 kts 291°
2026-05-04 14:50 33.65601 -84.60787 5377 ft 269 kts 315°
2026-05-04 14:50 33.67178 -84.61997 5282 ft 269 kts 339°
2026-05-04 14:51 33.69005 -84.62458 5214 ft 270 kts 352°
2026-05-04 14:51 33.70885 -84.62583 5178 ft 270 kts 357°
2026-05-04 14:51 33.72811 -84.62596 5265 ft 293 kts 359°
2026-05-04 14:51 33.74918 -84.62573 6004 ft 302 kts 359°
2026-05-04 14:52 33.76960 -84.62308 7185 ft 289 kts 17°
2026-05-04 14:52 33.78687 -84.61232 8501 ft 277 kts 40°
2026-05-04 14:52 33.79931 -84.59498 9397 ft 284 kts 61°
2026-05-04 14:52 33.80630 -84.57211 9978 ft 299 kts 79°
2026-05-04 14:53 33.80937 -84.54714 10692 ft 309 kts 84°
2026-05-04 14:53 33.81166 -84.52033 10924 ft 335 kts 84°
2026-05-04 14:53 33.81399 -84.49130 11038 ft 361 kts 84°
2026-05-04 14:53 33.81665 -84.45922 11161 ft 383 kts 84°
2026-05-04 14:54 33.81935 -84.42804 11607 ft 392 kts 84°
2026-05-04 14:54 33.82222 -84.39554 12441 ft 391 kts 83°
2026-05-04 14:54 33.82515 -84.36274 13024 ft 398 kts 83°
2026-05-04 14:54 33.82814 -84.32938 13731 ft 404 kts 83°
2026-05-04 14:55 33.83117 -84.29558 14384 ft 409 kts 83°
2026-05-04 14:55 33.83422 -84.26131 15004 ft 415 kts 83°
2026-05-04 14:55 33.83732 -84.22662 15637 ft 421 kts 82°
2026-05-04 14:55 33.84049 -84.19134 16304 ft 427 kts 82°
2026-05-04 14:56 33.84372 -84.15558 16927 ft 434 kts 82°
2026-05-04 14:56 33.84697 -84.11958 17572 ft 440 kts 81°
2026-05-04 14:56 33.85027 -84.08292 18232 ft 446 kts 81°
2026-05-04 14:56 33.85362 -84.04560 18835 ft 452 kts 81°
2026-05-04 14:57 33.85700 -84.00782 19444 ft 457 kts 81°
2026-05-04 14:57 33.86038 -83.96959 20069 ft 462 kts 81°
2026-05-04 14:57 33.86377 -83.93092 20704 ft 468 kts 81°
2026-05-04 14:57 33.86716 -83.89179 21365 ft 473 kts 82°
2026-05-04 14:58 33.87064 -83.85225 22025 ft 478 kts 80°
2026-05-04 14:58 33.87805 -83.81322 22653 ft 479 kts 65°
2026-05-04 14:58 33.89289 -83.77756 23326 ft 478 kts 55°
2026-05-04 14:58 33.90984 -83.74356 23899 ft 484 kts 56°
2026-05-04 14:59 33.92587 -83.70768 24477 ft 490 kts 59°
2026-05-04 14:59 33.94099 -83.67068 25032 ft 495 kts 60°
2026-05-04 14:59 33.97347 -83.59621 25657 ft 514 kts 57°
2026-05-04 15:00 33.99148 -83.55844 25766 ft 527 kts 56°
2026-05-04 15:00 34.01002 -83.52006 26149 ft 532 kts 56°
2026-05-04 15:00 34.02843 -83.48149 26971 ft 529 kts 57°
2026-05-04 15:01 34.06457 -83.40509 28393 ft 528 kts 57°
2026-05-04 15:01 34.08279 -83.36671 29139 ft 527 kts 57°
2026-05-04 15:01 34.10104 -83.32829 29903 ft 527 kts 57°
2026-05-04 15:01 34.11924 -83.29000 30618 ft 526 kts 57°
2026-05-04 15:02 34.13741 -83.25175 31300 ft 525 kts 57°
2026-05-04 15:02 34.15554 -83.21357 31998 ft 523 kts 57°
2026-05-04 15:02 34.17359 -83.17548 32720 ft 522 kts 57°
2026-05-04 15:02 34.19158 -83.13749 33444 ft 521 kts 57°
2026-05-04 15:03 34.20956 -83.09947 34121 ft 520 kts 57°
2026-05-04 15:03 34.22721 -83.06210 34703 ft 519 kts 57°
2026-05-04 15:03 34.24524 -83.02395 34983 ft 524 kts 57°
2026-05-04 15:03 34.26327 -82.98574 35086 ft 523 kts 57°
2026-05-04 15:04 34.29917 -82.90945 35124 ft 521 kts 57°
2026-05-04 15:04 34.33499 -82.83333 35121 ft 520 kts 57°
2026-05-04 15:05 34.37065 -82.75719 35119 ft 520 kts 57°
2026-05-04 15:05 34.40604 -82.68147 35116 ft 520 kts 57°
2026-05-04 15:06 34.44165 -82.60512 35105 ft 520 kts 57°
2026-05-04 15:07 34.49498 -82.49053 35122 ft 521 kts 57°
2026-05-04 15:07 34.53048 -82.41404 35131 ft 520 kts 56°
2026-05-04 15:08 34.56565 -82.33813 35130 ft 519 kts 56°
2026-05-04 15:08 34.60100 -82.26161 35126 ft 520 kts 56°
2026-05-04 15:09 34.63631 -82.18511 35128 ft 520 kts 56°
2026-05-04 15:09 34.67157 -82.10847 35117 ft 520 kts 56°
2026-05-04 15:10 34.72462 -81.99284 35114 ft 520 kts 56°
2026-05-04 15:11 34.77704 -81.87812 35127 ft 519 kts 56°
2026-05-04 15:11 34.81213 -81.80133 35125 ft 519 kts 56°
2026-05-04 15:12 34.84710 -81.72445 35119 ft 519 kts 56°
2026-05-04 15:12 34.88203 -81.64747 35118 ft 519 kts 56°
2026-05-04 15:13 34.91694 -81.57042 35110 ft 520 kts 56°
2026-05-04 15:13 34.95161 -81.49370 35140 ft 520 kts 56°
2026-05-04 15:14 34.98653 -81.41634 35117 ft 521 kts 56°
2026-05-04 15:14 35.02139 -81.33883 35106 ft 521 kts 56°
2026-05-04 15:15 35.05625 -81.26121 35102 ft 522 kts 56°
2026-05-04 15:15 35.09107 -81.18347 35104 ft 522 kts 56°
2026-05-04 15:16 35.14327 -81.06663 35103 ft 522 kts 57°
2026-05-04 15:17 35.19402 -80.94865 35124 ft 526 kts 62°
2026-05-04 15:17 35.23306 -80.82267 35119 ft 529 kts 65°
2026-05-04 15:18 35.26010 -80.73908 35143 ft 528 kts 64°
2026-05-04 15:19 35.30081 -80.61365 35125 ft 529 kts 64°
2026-05-04 15:19 35.34115 -80.48857 35119 ft 529 kts 64°
2026-05-04 15:20 35.36815 -80.40470 35130 ft 530 kts 64°
2026-05-04 15:20 35.39510 -80.32080 35147 ft 529 kts 64°
2026-05-04 15:21 35.42201 -80.23679 35150 ft 529 kts 64°
2026-05-04 15:22 35.46208 -80.11118 35146 ft 530 kts 64°
2026-05-04 15:22 35.50231 -79.98462 35131 ft 531 kts 64°
2026-05-04 15:23 35.52905 -79.90013 35130 ft 531 kts 64°
2026-05-04 15:23 35.55570 -79.81559 35131 ft 530 kts 65°
2026-05-04 15:24 35.60874 -79.64685 35110 ft 532 kts 65°
2026-05-04 15:25 35.63532 -79.56198 35110 ft 532 kts 65°
2026-05-04 15:26 35.67507 -79.43458 35115 ft 532 kts 65°
2026-05-04 15:26 35.71456 -79.30744 35110 ft 533 kts 65°
2026-05-04 15:27 35.75407 -79.17965 35110 ft 533 kts 65°
2026-05-04 15:28 35.79351 -79.05151 35113 ft 533 kts 65°
2026-05-04 15:29 35.83269 -78.92361 35099 ft 535 kts 65°
2026-05-04 15:30 35.89218 -78.75703 35111 ft 524 kts 51°
2026-05-04 15:30 35.94909 -78.64117 35105 ft 528 kts 53°
2026-05-04 15:31 36.00664 -78.52620 35116 ft 527 kts 51°
2026-05-04 15:32 36.09816 -78.34784 35117 ft 527 kts 51°
2026-05-04 15:34 36.20252 -78.14377 35110 ft 527 kts 51°
2026-05-04 15:34 36.25458 -78.04164 35092 ft 527 kts 51°
2026-05-04 15:35 36.31318 -77.92632 35098 ft 527 kts 52°
2026-05-04 15:36 36.37144 -77.81118 35129 ft 528 kts 52°
2026-05-04 15:36 36.41036 -77.73403 35100 ft 526 kts 52°
2026-05-04 15:37 36.44912 -77.65703 35099 ft 525 kts 52°
2026-05-04 15:37 36.48779 -77.58008 35100 ft 525 kts 52°
2026-05-04 15:38 36.52619 -77.50346 35091 ft 526 kts 53°
2026-05-04 15:38 36.56478 -77.42624 35098 ft 526 kts 53°
2026-05-04 15:39 36.60327 -77.34912 35095 ft 522 kts 53°
2026-05-04 15:40 36.66034 -77.23431 35091 ft 519 kts 53°
2026-05-04 15:40 36.69806 -77.15834 35094 ft 518 kts 53°
2026-05-04 15:41 36.73590 -77.08184 35096 ft 518 kts 53°
2026-05-04 15:41 36.77369 -77.00533 35113 ft 518 kts 53°
2026-05-04 15:42 36.81135 -76.92892 35081 ft 516 kts 54°
2026-05-04 15:42 36.84857 -76.85314 35080 ft 515 kts 54°
2026-05-04 15:43 36.88604 -76.77678 35082 ft 516 kts 54°
2026-05-04 15:43 36.92349 -76.70029 35069 ft 516 kts 54°
2026-05-04 15:44 36.96085 -76.62374 35103 ft 516 kts 54°
2026-05-04 15:44 36.99817 -76.54717 35074 ft 515 kts 54°
2026-05-04 15:45 37.03510 -76.47125 35084 ft 514 kts 54°
2026-05-04 15:45 37.07305 -76.39521 35052 ft 513 kts 47°
2026-05-04 15:45 37.09744 -76.36351 35024 ft 499 kts 33°
2026-05-04 15:46 37.12504 -76.33753 35090 ft 497 kts 31°
2026-05-04 15:46 37.17910 -76.28250 35081 ft 502 kts 34°
2026-05-04 15:47 37.23288 -76.22821 35079 ft 498 kts 31°
2026-05-04 15:47 37.28904 -76.17614 34716 ft 495 kts 30°
2026-05-04 15:47 37.31612 -76.15117 34340 ft 486 kts 30°
2026-05-04 15:48 37.34318 -76.12619 33976 ft 481 kts 30°
2026-05-04 15:48 37.37013 -76.10141 33611 ft 480 kts 30°
2026-05-04 15:48 37.42394 -76.05214 33152 ft 478 kts 30°
2026-05-04 15:49 37.47805 -76.00257 33082 ft 484 kts 30°
2026-05-04 15:49 37.53322 -75.95199 33068 ft 496 kts 30°
2026-05-04 15:50 37.58864 -75.90095 33069 ft 497 kts 30°
2026-05-04 15:50 37.64445 -75.84943 33073 ft 497 kts 30°
2026-05-04 15:51 37.70030 -75.79782 33072 ft 498 kts 30°
2026-05-04 15:51 37.75616 -75.74611 33077 ft 499 kts 30°
2026-05-04 15:52 37.81219 -75.69419 33072 ft 499 kts 30°
2026-05-04 15:52 37.86778 -75.64255 33063 ft 499 kts 30°
2026-05-04 15:53 37.92367 -75.59052 33061 ft 499 kts 31°
2026-05-04 15:53 37.97951 -75.53839 33058 ft 498 kts 30°
2026-05-04 15:54 38.03540 -75.48642 33057 ft 497 kts 28°
2026-05-04 15:54 38.09501 -75.44427 33064 ft 488 kts 20°
2026-05-04 15:55 38.15530 -75.40525 33063 ft 491 kts 22°
2026-05-04 15:55 38.21599 -75.36501 33061 ft 493 kts 21°
2026-05-04 15:56 38.27728 -75.32596 32947 ft 493 kts 20°
2026-05-04 15:56 38.30766 -75.30670 32768 ft 482 kts 20°
2026-05-04 15:56 38.33735 -75.28775 32817 ft 473 kts 20°
2026-05-04 15:57 38.36692 -75.26896 33015 ft 481 kts 20°
2026-05-04 15:57 38.39687 -75.25011 33061 ft 490 kts 20°
2026-05-04 15:57 38.45805 -75.21140 33061 ft 490 kts 21°
2026-05-04 15:58 38.51895 -75.17252 33054 ft 489 kts 21°
2026-05-04 15:58 38.57984 -75.13369 33053 ft 489 kts 21°
2026-05-04 15:59 38.64076 -75.09487 33061 ft 489 kts 21°
2026-05-04 15:59 38.70113 -75.05627 33045 ft 488 kts 21°
2026-05-04 16:00 38.76210 -75.01721 33047 ft 491 kts 21°
2026-05-04 16:00 38.82321 -74.97799 33053 ft 492 kts 21°
2026-05-04 16:01 38.88430 -74.93862 33047 ft 491 kts 21°
2026-05-04 16:01 38.94489 -74.89960 33046 ft 491 kts 21°
2026-05-04 16:02 39.00591 -74.86018 33042 ft 491 kts 21°
2026-05-04 16:03 39.09611 -74.79696 32673 ft 502 kts 32°
2026-05-04 16:03 39.12331 -74.76874 32012 ft 500 kts 36°
2026-05-04 16:03 39.14948 -74.73980 31290 ft 492 kts 36°
2026-05-04 16:03 39.17558 -74.71188 30569 ft 483 kts 34°
2026-05-04 16:04 39.20145 -74.68501 29853 ft 474 kts 34°
2026-05-04 16:04 39.25146 -74.63240 28301 ft 460 kts 35°
2026-05-04 16:04 39.27582 -74.60616 27529 ft 453 kts 35°
2026-05-04 16:05 39.29978 -74.58024 26815 ft 446 kts 35°
2026-05-04 16:05 39.32336 -74.55471 26173 ft 441 kts 35°
2026-05-04 16:05 39.36993 -74.50429 24932 ft 432 kts 35°
2026-05-04 16:06 39.39285 -74.47941 24298 ft 428 kts 35°
2026-05-04 16:06 39.45266 -74.41404 22590 ft 417 kts 36°
2026-05-04 16:07 39.48179 -74.38203 21715 ft 413 kts 36°
2026-05-04 16:07 39.54704 -74.31074 19794 ft 406 kts 36°
2026-05-04 16:08 39.56858 -74.28716 19180 ft 404 kts 36°
2026-05-04 16:08 39.63211 -74.21728 17194 ft 401 kts 36°
2026-05-04 16:09 39.67461 -74.17141 15792 ft 393 kts 34°
2026-05-04 16:09 39.71632 -74.12641 14472 ft 387 kts 38°
2026-05-04 16:10 39.75629 -74.08053 13065 ft 379 kts 37°
2026-05-04 16:11 39.81565 -74.01491 11196 ft 364 kts 37°
2026-05-04 16:11 39.83521 -73.99502 11039 ft 360 kts 31°
2026-05-04 16:12 39.90066 -73.94716 11031 ft 361 kts 26°
2026-05-04 16:12 39.96610 -73.89851 11037 ft 361 kts 25°
2026-05-04 16:13 40.00959 -73.86760 11010 ft 336 kts 25°
2026-05-04 16:13 40.04738 -73.84018 11042 ft 300 kts 25°
2026-05-04 16:14 40.08415 -73.81318 11057 ft 305 kts 25°
2026-05-04 16:14 40.12104 -73.78611 11028 ft 304 kts 25°
2026-05-04 16:15 40.17602 -73.74567 11012 ft 303 kts 25°
2026-05-04 16:16 40.21288 -73.71857 11004 ft 304 kts 25°
2026-05-04 16:16 40.26769 -73.67812 9867 ft 292 kts 25°
2026-05-04 16:17 40.30221 -73.65262 8812 ft 280 kts 25°
2026-05-04 16:18 40.35378 -73.61565 7260 ft 283 kts 14°
2026-05-04 16:18 40.37245 -73.60793 6746 ft 284 kts 17°
2026-05-04 16:19 40.42482 -73.57099 5222 ft 283 kts 26°
2026-05-04 16:19 40.45737 -73.54635 4373 ft 251 kts 26°
2026-05-04 16:20 40.50177 -73.51349 4193 ft 249 kts 25°
2026-05-04 16:20 40.53186 -73.49158 4404 ft 248 kts 24°
2026-05-04 16:21 40.57761 -73.45850 4922 ft 250 kts 24°
2026-05-04 16:22 40.60779 -73.43667 4978 ft 249 kts 24°
2026-05-04 16:22 40.65316 -73.40373 4995 ft 248 kts 24°
2026-05-04 16:23 40.69851 -73.37082 5001 ft 248 kts 24°
2026-05-04 16:24 40.76005 -73.34888 4960 ft 223 kts 328°
2026-05-04 16:25 40.78594 -73.37011 5006 ft 217 kts 318°
2026-05-04 16:26 40.80719 -73.43565 4999 ft 197 kts 271°
2026-05-04 16:26 40.80960 -73.48990 4452 ft 196 kts 270°
2026-05-04 16:27 40.81122 -73.52379 3488 ft 167 kts 270°
2026-05-04 16:28 40.81149 -73.56792 2872 ft 160 kts 246°
2026-05-04 16:28 40.79360 -73.60596 2945 ft 161 kts 236°
2026-05-04 16:29 40.76798 -73.65373 2797 ft 160 kts 229°
2026-05-04 16:30 40.74217 -73.67829 2179 ft 127 kts 214°
2026-05-04 16:31 40.72639 -73.69083 2011 ft 139 kts 213°
2026-05-04 16:31 40.70129 -73.71063 1347 ft 140 kts 212°
2026-05-04 16:32 40.67653 -73.73024 761 ft 140 kts 214°
2026-05-04 16:33 40.65984 -73.74328 391 ft 141 kts 208°
2026-05-04 16:33 40.64362 -73.75614 46 ft 131 kts 208°
2026-05-04 16:34 40.63323 -73.76430 26 ft 50 kts 211°
2026-05-04 16:34 40.63051 -73.76666 29 ft 42 kts 224°
2026-05-04 16:35 40.63057 -73.77252 32 ft 23 kts 300°
2026-05-04 16:35 40.63269 -73.77721 31 ft 22 kts 300°
2026-05-04 16:36 40.63333 -73.77862 31 ft 15 kts 301°
2026-05-04 16:36 40.63439 -73.77882 29 ft 8 kts 32°
2026-05-04 16:37 40.63541 -73.77814 27 ft 3 kts 345°
2026-05-04 16:37 40.63548 -73.77819 27 ft 0 kts 330°
2026-05-04 16:37 40.63556 -73.77829 26 ft 4 kts 317°
2026-05-04 16:38 40.63598 -73.77871 28 ft 10 kts 332°
2026-05-04 16:39 40.63906 -73.77938 28 ft 17 kts 354°
2026-05-04 16:39 40.64031 -73.77969 28 ft 2 kts 307°
2026-05-04 16:40 40.64023 -73.78045 28 ft 2 kts 249°
2026-05-04 16:40 40.64014 -73.78073 28 ft 0 kts 247°
2026-05-04 16:41 40.64013 -73.78077 28 ft 0 kts 247°